ZHONGXING-1D

Last updated on Thu Oct 30 2025 00:02:52 GMT+0000 (Coordinated Universal Time)

1 49505U 21114A 25302.49690450 -.00000326 00000+0 00000+0 0 9991 2 49505 0.0219 300.2151 0002606 325.9080 81.0221 1.00270884 14515
UTC large
Height (km)
Speed (km/s)
/
Latitude / Longitude
Inclination (degrees)
Orbital Period (minutes)
Azimuth
Elevation
Range (km)
Doppler Factor

Next 0 passes for location: London (51.5072 / 0.1276)

Sorry there are no passes over London.